Location: Boiro
(42.6475°N, 8.8834°W)
Time: 23:48:04
(UTC+01:00)

ISS - Visible Passes

Search period start: 29 November 2023 00:00
Search period end: 09 December 2023 00:00
Orbit: 416 x 417 km, 51.6° (Epoch: 29 November)

Date Brightness Start Highest point End Pass type
(mag) Time Alt. Az. Time Alt. Az. Time Alt. Az.
29 Nov -2.2 19:51:48 10° NW 19:53:55 25° N 19:53:55 25° N visible
30 Nov -2.3 19:03:32 10° NW 19:06:17 23° NNE 19:07:42 17° NE visible
30 Nov -0.8 20:40:01 10° NW 20:40:37 14° NW 20:40:37 14° NW visible
01 Dec -3.3 19:51:40 10° NW 19:54:27 47° N 19:54:27 47° N visible
02 Dec -3.1 19:03:19 10° NW 19:06:28 37° NNE 19:08:24 19° E visible
02 Dec -1.0 20:40:07 10° WNW 20:41:20 19° W 20:41:20 19° W visible
03 Dec -3.3 19:51:29 10° WNW 19:54:48 59° SW 19:55:28 47° SSE visible
04 Dec -3.9 19:02:57 10° NW 19:06:18 82° NNE 19:09:39 10° ESE visible
04 Dec -0.7 20:41:02 10° WSW 20:42:36 13° SW 20:42:49 13° SW visible
05 Dec -1.3 19:51:35 10° W 19:54:14 22° SW 19:56:51 10° S visible
06 Dec -2.1 19:02:39 10° WNW 19:05:46 36° SW 19:08:52 10° SSE visible
08 Dec -0.5 19:03:01 10° W 19:04:50 14° SW 19:06:40 10° SSW visible
